NOAA 16 DEB

基本信息
目录编号:
42421
目录名称:
NOAA 16 DEB
国际标识:
2000-055TR
轨道中心:
EARTH
物体状态:
在轨
发射日期:
2000-09-21 UTC
轨道信息
数据来源: 国际轨道数据
星历时间: 2026-07-08T13:32:52+0800
半长轴: 7240.932km
偏心率: 0.0082682
轨道倾角: 98.888°
近地点辐角: 36.093°
升交点赤经: 166.570°
平近点角: 324.578°
近地点: 802.925km
远地点: 922.665km
周期: 102.200分钟
每日圈数: 14.090005
详细信息
发射场:
AFWTR
轨道高度:
LEO
数据来源:
AOE Integration Group
参考系:
TEME
时间系统:
UTC
历元类型:
SGP4
2D轨道图
3D轨道图
轨道高度分析图
轨道倾角分析图
轨道综合分析图
查看轨道综合分析图